Overview Statistics Trail Chart Weather Telemetry Raw packets
 

This is the latest recevied weather packets stored in our database for station/object KB4RFE. If no packets are shown the sender has not sent any weather packets the latest 10 day(s).

<< 28 29 30 31 32 33 34 >>
Time Temp. Humidity Pressure Rain* Wind** Luminosity Snow
1788436091 25° C 98% 1020.5 hPa 0 mm - 34 W/m² -
1788435787 25° C 98% 1020.8 hPa 0 mm - 32 W/m² -
1788435482 25° C 98% 1020.6 hPa 0.51 mm - 29 W/m² -
1788435178 25° C 98% 1020.4 hPa 0.51 mm - 22 W/m² -
1788434873 25° C 98% 1020.2 hPa 0 mm - 20 W/m² -
1788434569 25° C 98% 1020.3 hPa 0 mm - 18 W/m² -
1788434267 25° C 98% 1020.2 hPa 0 mm - 14 W/m² -
1788433963 25° C 98% 1020 hPa 0 mm - 10 W/m² -
1788433659 25° C 98% 1020.1 hPa 0 mm - 7 W/m² -
1788433355 25° C 98% 1020.2 hPa 0 mm - 5 W/m² -
1788433054 25° C 98% 1019.9 hPa 0.51 mm - 3 W/m² -
1788432749 25° C 98% 1020 hPa 0 mm - 1 W/m² -
1788432449 25° C 98% 1019.9 hPa 0 mm - 1 W/m² -
1788432144 25° C 98% 1019.9 hPa 0 mm - 0 W/m² -
1788431840 25° C 98% 1019.9 hPa 0 mm - 0 W/m² -
1788431536 25° C 98% 1019.7 hPa 0 mm - 0 W/m² -
1788431231 25° C 98% 1019.9 hPa 0 mm - 0 W/m² -
1788430931 25° C 98% 1019.8 hPa 0 mm - 0 W/m² -
1788430629 25° C 98% 1019.7 hPa 0 mm - 0 W/m² -
1788430326 25° C 98% 1019.8 hPa 0 mm - 0 W/m² -
1788430026 25° C 98% 1019.7 hPa 0 mm - 0 W/m² -
1788429726 25° C 98% 1019.7 hPa 0 mm - 0 W/m² -
1788429423 25° C 98% 1019.5 hPa 0 mm - 0 W/m² -
1788429118 25° C 98% 1019.4 hPa 0 mm - 0 W/m² -
1788428813 25° C 98% 1019.5 hPa 0 mm - 0 W/m² -

* Rain latest hour (hover to see other rain measurements)
** Current wind speed in m/s (hover to see current wind gust speed)